Location: Newark
(44.3681°N, 100.3364°W)
Time: 04:09:08
(UTC+00:00)

SR - Pass Details

Date: 05 March 2020
Orbit: 578 x 878 km, 66.7° (Epoch: 04 April)

Event Time Altitude Azimuth Distance (km) Brightness Sun altitude
Rises 03:24:10 0° 330° (NNW) 3,272 ? -30.5°
Reaches altitude 10° 03:26:45 10° 336° (NNW) 2,291 ? -31.0°
Enters shadow 03:29:34 30° 351° (N) 1,301 ? -31.4°
